Sturgis, MI

8:14 PM EDT on August 26, 2016 (GMT -0400)
Kirsch Municipal

Weather History for KIRS - August, 2014

Change the Weather History Date:

Friday, August 15, 2014

  Actual Average (KHAI) Record (KHAI)
Temperature  
Mean Temperature 58 °F -  
Max Temperature 73 °F 82 °F 94 °F (1965)
Min Temperature 42 °F 58 °F 39 °F (1964)
Degree Days  
Heating Degree Days 8    
Growing Degree Days 8 (Base 50)    
Moisture  
Dew Point 47 °F    
Average Humidity 72    
Maximum Humidity 100    
Minimum Humidity 38    
Precipitation  
Precipitation 0.00 in - - ()
Sea Level Pressure  
Sea Level Pressure 30.05 in    
Wind  
Wind Speed 3 mph (West)    
Max Wind Speed 13 mph    
Max Gust Speed 16 mph    
Visibility 10 miles    
Events      
Averages and records for this station are not official NWS values.
T = Trace of Precipitation, MM = Missing Value Source: NWS Daily Summary

Daily Weather History Graph

Daily Weather History Graph

Search for Another Location

Airport or City:

Trip Planner

Search our weather history database for the weather conditions in past years. The results will help you decide how hot, cold, wet, or windy it might be!

Date:

Astronomy

Aug. 15, 2014 Rise Set
Actual Time 6:49 AM EDT 8:41 PM EDT
Civil Twilight 6:19 AM EDT 9:11 PM EDT
Nautical Twilight 5:43 AM EDT 9:47 PM EDT
Astronomical Twilight 5:03 AM EDT 10:27 PM EDT
Moon 11:37 PM EDT (8/15) 12:37 PM EDT (8/15)
Length of Visible Light 14h 51m
Length of Day
13h 51m
Waning Gibbous, 69% of the Moon is Illuminated
Aug 15
Waning Gibbous
Aug 17
Last Quarter
Aug 25
New
Sep 2
First Quarter
Sep 8
Full

Hourly Weather History & Observations

Time (EDT) Temp. Windchill Dew Point Humidity Pressure Visibility Wind Dir Wind Speed Gust Speed Precip Events Conditions
12:14 AM 50.0 °F - 44.6 °F 82% 30.06 in 10.0 mi NW 3.5 mph - N/A   Clear
12:35 AM 48.2 °F - 44.6 °F 87% 30.06 in 10.0 mi NW 4.6 mph - N/A   Clear
12:54 AM 48.2 °F - 44.6 °F 87% 30.05 in 10.0 mi NW 3.5 mph - N/A   Clear
1:15 AM 46.4 °F 45.2 °F 44.6 °F 93% 30.05 in 10.0 mi NW 3.5 mph - N/A   Clear
1:35 AM 46.4 °F - 44.6 °F 93% 30.05 in 10.0 mi Calm Calm - N/A   Clear
1:55 AM 48.2 °F - 44.6 °F 87% 30.05 in 10.0 mi Calm Calm - N/A   Clear
2:15 AM 46.4 °F 45.2 °F 44.6 °F 93% 30.05 in 10.0 mi NNW 3.5 mph - N/A   Clear
2:35 AM 46.4 °F - 42.8 °F 87% 30.05 in 10.0 mi Calm Calm - N/A   Clear
2:55 AM 46.4 °F 45.2 °F 44.6 °F 93% 30.05 in 10.0 mi NNW 3.5 mph - N/A   Clear
3:15 AM 44.6 °F - 42.8 °F 93% 30.05 in 10.0 mi Calm Calm - N/A   Clear
3:34 AM 44.6 °F - 42.8 °F 93% 30.05 in 10.0 mi Calm Calm - N/A   Clear
3:55 AM 44.6 °F - 42.8 °F 93% 30.05 in 10.0 mi Calm Calm - N/A   Clear
4:15 AM 44.6 °F - 42.8 °F 93% 30.05 in 10.0 mi Calm Calm - N/A   Clear
4:34 AM 46.4 °F - 44.6 °F 93% 30.05 in 10.0 mi Calm Calm - N/A   Clear
4:55 AM 42.8 °F 41.1 °F 42.8 °F 100% 30.05 in 10.0 mi North 3.5 mph - N/A   Clear
5:15 AM 44.6 °F - 42.8 °F 93% 30.06 in 10.0 mi Calm Calm - N/A   Clear
5:35 AM 44.6 °F - 44.6 °F 100% 30.06 in 10.0 mi Calm Calm - N/A   Clear
5:54 AM 46.4 °F - 44.6 °F 93% 30.06 in 10.0 mi Calm Calm - N/A   Clear
6:15 AM 42.8 °F - 41.0 °F 93% 30.06 in 10.0 mi Calm Calm - N/A   Clear
6:34 AM 42.8 °F - 42.8 °F 100% 30.07 in 10.0 mi Calm Calm - N/A   Clear
6:55 AM 42.8 °F - 42.8 °F 100% 30.07 in 10.0 mi Calm Calm - N/A   Clear
7:15 AM 42.8 °F - 42.8 °F 100% 30.07 in 10.0 mi Calm Calm - N/A   Clear
7:35 AM 44.6 °F - 42.8 °F 93% 30.07 in 10.0 mi Calm Calm - N/A   Clear
7:54 AM 46.4 °F - 44.6 °F 93% 30.08 in 10.0 mi Calm Calm - N/A   Clear
8:15 AM 46.4 °F - 44.6 °F 93% 30.09 in 10.0 mi Calm Calm - N/A   Clear
8:34 AM 48.2 °F - 46.4 °F 93% 30.09 in 10.0 mi Calm Calm - N/A   Clear
8:55 AM 51.8 °F - 48.2 °F 88% 30.09 in 10.0 mi WSW 3.5 mph - N/A   Clear
9:15 AM 53.6 °F - 50.0 °F 88% 30.10 in 10.0 mi Calm Calm - N/A   Clear
9:34 AM 53.6 °F - 50.0 °F 88% 30.10 in 10.0 mi Calm Calm - N/A   Clear
9:55 AM 57.2 °F - 51.8 °F 82% 30.10 in 10.0 mi Calm Calm - N/A   Clear
10:15 AM 59.0 °F - 51.8 °F 77% 30.10 in 10.0 mi West 3.5 mph - N/A   Clear
10:34 AM 60.8 °F - 50.0 °F 68% 30.10 in 10.0 mi West 4.6 mph - N/A   Clear
10:55 AM 62.6 °F - 48.2 °F 59% 30.09 in 10.0 mi WNW 4.6 mph - N/A   Clear
11:15 AM 64.4 °F - 46.4 °F 52% 30.09 in 10.0 mi Calm Calm - N/A   Clear
11:35 AM 66.2 °F - 46.4 °F 49% 30.09 in 10.0 mi West 5.8 mph - N/A   Clear
11:55 AM 66.2 °F - 48.2 °F 52% 30.09 in 10.0 mi West 6.9 mph - N/A   Clear
12:15 PM 68.0 °F - 48.2 °F 49% 30.09 in 10.0 mi West 5.8 mph - N/A   Clear
12:34 PM 68.0 °F - 48.2 °F 49% 30.08 in 10.0 mi SW 8.1 mph - N/A   Clear
12:54 PM 69.8 °F - 48.2 °F 46% 30.08 in 10.0 mi WSW 5.8 mph - N/A   Clear
1:15 PM 69.8 °F - 48.2 °F 46% 30.07 in 10.0 mi NW 6.9 mph - N/A   Clear
1:34 PM 69.8 °F - 50.0 °F 49% 30.07 in 10.0 mi NNW 5.8 mph - N/A   Clear
1:55 PM 71.6 °F - 50.0 °F 46% 30.07 in 10.0 mi West 12.7 mph 16.1 mph N/A   Scattered Clouds
2:14 PM 71.6 °F - 50.0 °F 46% 30.06 in 10.0 mi West 5.8 mph - N/A   Scattered Clouds
2:35 PM 71.6 °F - 50.0 °F 46% 30.05 in 10.0 mi NW 5.8 mph - N/A   Scattered Clouds
2:54 PM 71.6 °F - 48.2 °F 43% 30.05 in 10.0 mi NW 4.6 mph - N/A   Scattered Clouds
3:15 PM 71.6 °F - 50.0 °F 46% 30.04 in 10.0 mi WSW 9.2 mph - N/A   Scattered Clouds
3:35 PM 71.6 °F - 48.2 °F 43% 30.04 in 10.0 mi SSW 6.9 mph - N/A   Scattered Clouds
3:54 PM 73.4 °F - 50.0 °F 44% 30.03 in 10.0 mi WSW 9.2 mph - N/A   Scattered Clouds
4:15 PM 73.4 °F - 50.0 °F 44% 30.03 in 10.0 mi West 8.1 mph - N/A   Scattered Clouds
4:34 PM 73.4 °F - 50.0 °F 44% 30.03 in 10.0 mi SW 10.4 mph - N/A   Scattered Clouds
4:55 PM 73.4 °F - 50.0 °F 44% 30.03 in 10.0 mi West 8.1 mph - N/A   Clear
5:15 PM 73.4 °F - 50.0 °F 44% 30.03 in 10.0 mi WSW 10.4 mph - N/A   Clear
5:34 PM 73.4 °F - 50.0 °F 44% 30.02 in 10.0 mi WSW 5.8 mph - N/A   Clear
5:55 PM 73.4 °F - 46.4 °F 38% 30.01 in 10.0 mi WSW 8.1 mph - N/A   Clear
6:15 PM 73.4 °F - 48.2 °F 41% 30.01 in 10.0 mi West 5.8 mph - N/A   Clear
6:34 PM 71.6 °F - 48.2 °F 43% 30.01 in 10.0 mi West 4.6 mph - N/A   Clear
6:55 PM 71.6 °F - 46.4 °F 41% 30.00 in 10.0 mi WSW 6.9 mph - N/A   Clear
7:15 PM 71.6 °F - 46.4 °F 41% 30.00 in 10.0 mi West 5.8 mph - N/A   Clear
7:35 PM 71.6 °F - 46.4 °F 41% 29.99 in 10.0 mi West 5.8 mph - N/A   Clear
7:54 PM 69.8 °F - 48.2 °F 46% 29.99 in 10.0 mi West 4.6 mph - N/A   Clear
8:15 PM 66.2 °F - 48.2 °F 52% 29.99 in 10.0 mi West 3.5 mph - N/A   Clear
8:34 PM 64.4 °F - 51.8 °F 64% 30.00 in 10.0 mi SW 3.5 mph - N/A   Clear
8:55 PM 60.8 °F - 51.8 °F 72% 30.00 in 10.0 mi Calm Calm - N/A   Clear
9:15 PM 57.2 °F - 53.6 °F 88% 30.00 in 10.0 mi Calm Calm - N/A   Clear
9:35 PM 57.2 °F - 53.6 °F 88% 30.00 in 10.0 mi Calm Calm - N/A   Clear
9:54 PM 55.4 °F - 51.8 °F 88% 30.01 in 10.0 mi Calm Calm - N/A   Clear
10:15 PM 55.4 °F - 51.8 °F 88% 30.00 in 10.0 mi Calm Calm - N/A   Clear
10:35 PM 55.4 °F - 51.8 °F 88% 30.01 in 10.0 mi Calm Calm - N/A   Clear
10:55 PM 53.6 °F - 51.8 °F 94% 30.00 in 10.0 mi Calm Calm - N/A   Clear
11:14 PM 53.6 °F - 51.8 °F 94% 30.01 in 10.0 mi Calm Calm - N/A   Clear
11:35 PM 53.6 °F - 51.8 °F 94% 30.00 in 10.0 mi Calm Calm - N/A   Clear
11:54 PM 53.6 °F - 50.0 °F 88% 30.00 in 10.0 mi Calm Calm - N/A   Clear